Location: Henham
(51.9333°N, 0.2500°E)
Time: 06:46:38
(UTC+00:00)

Lacrosse 5 - Pass Details

Date: 23 October 2019
Orbit: 715 x 724 km, 57.0° (Epoch: 12 November)

Event Time Altitude Azimuth Distance (km) Brightness Sun altitude
Rises 18:11:58 0° 299° (WNW) 3,126 6.3 -13.4°
Reaches altitude 10° 18:14:29 10° 291° (WNW) 2,202 5.5 -13.8°
Maximum altitude 18:19:07 37° 225° (SW) 1,099 3.2 -14.5°
Drops below altitude 10° 18:23:45 10° 159° (SSE) 2,191 4.1 -15.2°
Enters shadow 18:25:45 - 152° (SSE) 2,919 4.7 -15.5°
